Location: Staunton
(38.1490°N, 79.0720°W)
Time: 00:29:36
(UTC-05:00)

ISS - Pass Details

Date: 26 November 2020
Orbit: 418 x 421 km, 51.6° (Epoch: 26 November)

Event Time Altitude Azimuth Distance (km) Brightness Sun altitude
Rises 18:22:03 0° 294° (WNW) 2,360 0.9 -16.3°
Drops below altitude 10° 18:26:22 10° 347° (NNW) 1,500 -1.0 -17.1°
Maximum altitude 18:26:26 10° 348° (NNW) 1,499 -1.0 -17.2°
Enters shadow 18:27:11 10° 1° (N) 1,532 -1.1 -17.3°
